[[{"header":{"parameterUnit":"m.s-1","parameterCategory":1,"la1":30.2991,"la2":30.254,"lo1":-89.0895,"lo2":-89.0444,"dy":0.0017,"dx":0.0017,"nx":28,"ny":28,"refTime":"2023-09-27T09:00:00:Z","depth":0,"parameterNumber":2,"parameterNumberName":"U-component_of_WINDS"},"data":[0,0,0,0,0,0,0,0,0,0,0,0,0,0,0,0,0,0,0,0,0,0,0,0,0,0,0,0,0,0,0,0,0,0,0,0,0,0,0,0,0,0,0,0,0,0,0,0,0,0,0,0,0,0,0,0,0,0,-4.1913,-4.1914,0,-4.1974,-4.1975,-4.1976,-4.1922,-4.192,-4.1918,-4.1916,-4.1981,-4.1984,-4.1988,0,0,0,0,0,0,0,0,0,0,0,0,0,-4.1753,-4.1756,-4.1913,-4.1914,-4.1915,-4.1974,-4.1975,-4.1976,-4.1923,-4.192,-4.1917,-4.1915,-4.1979,-4.1984,-4.1988,0,0,0,0,0,0,0,0,0,0,0,0,0,-4.1819,-4.1757,-4.1913,-4.1895,-4.1894,-4.1974,-4.1975,-4.1976,-4.1923,-4.192,-4.1917,-4.1913,-4.1978,-4.1983,-4.1989,-4.209,0,0,-4.2006,-4.2009,0,0,0,0,0,0,0,0,-4.1816,-4.1825,-4.1897,-4.1896,-4.1896,-4.1937,-4.1942,-4.2014,-4.1924,-4.1912,-4.1916,-4.1912,-4.1969,-4.1975,-4.1994,-4.2093,-4.2096,-4.2007,-4.201,-4.2013,-4.2014,0,0,0,0,0,0,0,-4.1811,-4.1822,-4.1937,-4.1898,-4.1897,-4.1885,-4.1891,-4.1956,-4.1959,-4.1913,-4.1909,-4.1917,-4.1968,-4.1989,-4.1995,-4.2097,-4.2007,-4.2012,-4.2015,-4.2017,-4.2285,-4.2289,0,0,0,0,0,0,-4.1808,-4.1819,-4.1935,-4.1939,-4.1846,-4.1891,-4.1897,-4.1927,-4.1958,-4.1959,-4.192,-4.1914,-4.1981,-4.1989,-4.1997,-4.212,-4.2013,-4.2018,-4.2021,-4.2281,-4.2286,-4.229,0,0,0,0,0,0,-4.1805,-4.1819,-4.1933,-4.1878,-4.1892,-4.1897,-4.1931,-4.193,-4.1951,-4.1963,-4.1963,-4.194,-4.1978,-4.1989,-4.2068,-4.2121,-4.2021,-4.2026,-4.2277,-4.2283,-4.2288,-4.2364,0,0,0,0,0,0,-4.18,-4.1818,-4.1856,-4.1879,-4.1895,-4.2002,-4.1934,-4.1934,-4.196,-4.1954,-4.1982,-4.1984,-4.1977,-4.206,-4.2074,-4.2127,-4.203,-4.2272,-4.228,-4.2286,-4.2357,-4.2372,-4.2384,0,0,0,0,0,-4.1795,-4.1875,-4.1858,-4.1872,-4.1942,-4.2005,-4.2014,-4.2003,-4.1965,-4.2004,-4.2012,-4.1983,-4.2113,-4.2068,-4.2083,-4.2139,-4.2269,-4.2278,-4.2286,-4.2351,-4.2369,-4.2384,0,0,0,0,0,0,-4.1857,-4.1877,-4.1859,-4.1949,-4.1976,-4.1996,-4.2044,-4.2022,-4.2061,-4.2054,-4.204,-4.2047,-4.213,-4.2142,-4.2092,-4.224,-4.2185,-4.2197,-4.2229,-4.2246,-4.226,-4.2256,-4.2035,0,0,0,0,0,-4.1882,-4.193,-4.1945,-4.2023,-4.2038,-4.2039,-4.2066,-4.2056,-4.2083,-4.2094,-4.2108,-4.2137,-4.2184,-4.2216,-4.226,-4.2358,-4.2365,-4.2404,-4.2418,-4.2429,-4.244,-4.2495,-4.2513,-4.2317,-4.2317,-4.2317,0,0,-4.1932,-4.1949,-4.1981,-4.2036,-4.2056,-4.2108,-4.2049,-4.2106,-4.2145,-4.2103,-4.2179,-4.219,-4.2221,-4.2311,-4.2351,-4.2324,-4.2495,-4.244,-4.2448,-4.2453,-4.2505,-4.2524,-4.2541,-4.2323,-4.2322,-4.2321,0,0,-4.2052,-4.2068,-4.2136,-4.2157,-4.2188,-4.2188,-4.2204,-4.2229,-4.2234,-4.231,-4.228,-4.2327,-4.2408,-4.2432,-4.2455,-4.2585,-4.2561,-4.26,-4.2672,-4.2726,-4.2741,-4.2755,-4.2803,-4.2821,-4.2611,-4.2611,-4.2611,0,-4.2111,-4.2187,-4.2174,-4.2234,-4.226,-4.2224,-4.2294,-4.2315,-4.2359,-4.2378,-4.2347,-4.2449,-4.2468,-4.2563,-4.2595,-4.2614,-4.2634,-4.2597,-4.274,-4.2754,-4.2766,-4.2812,-4.283,-4.2615,-4.2615,-4.2614,-4.2614,0,-4.226,-4.2314,-4.2365,-4.2408,-4.244,-4.2504,-4.2501,-4.2535,-4.2523,-4.2527,-4.2606,-4.2626,-4.2675,-4.2697,-4.2685,-4.2792,-4.2774,-4.2742,-4.2686,-4.279,-4.2833,-4.285,-4.2622,-4.262,-4.2619,-4.2618,0,0,-4.2421,-4.2456,-4.2475,-4.2495,-4.2527,-4.2569,-4.2632,-4.2679,-4.271,-4.2741,-4.2796,-4.2866,-4.2837,-4.2863,-4.2853,-4.2901,-4.3005,-4.2863,-4.2863,-4.289,-4.3127,-4.3152,-4.3173,-4.2989,-4.2992,-4.2995,-4.3125,0,-4.2542,-4.2652,-4.2643,-4.2747,-4.2798,-4.2765,-4.2821,-4.2847,-4.2854,-4.2898,-4.2905,-4.2956,-4.2912,-4.2928,-4.2973,-4.2983,-4.3053,-4.2973,-4.3041,-4.3044,-4.3036,-4.3195,-4.3222,-4.3344,-4.3142,-4.3144,-4.3146,0,-4.2699,-4.2737,-4.2847,-4.2872,-4.2893,-4.2943,-4.2987,-4.3029,-4.3059,-4.306,-4.309,-4.3073,-4.3139,-4.3081,-4.3173,-4.3119,-4.3146,-4.3155,-4.316,-4.3167,-4.3102,-4.3208,-4.3382,-4.3401,-4.3172,-4.317,-4.3169,0,-4.2808,-4.2886,-4.2962,-4.298,-4.3011,-4.3047,-4.3062,-4.3089,-4.3118,-4.3157,-4.3176,-4.3222,-4.3247,-4.3284,-4.328,-4.3238,-4.3374,-4.3316,-4.3379,-4.3379,-4.341,-4.3408,-4.3593,-4.3425,-4.3425,-4.3424,-4.3424,0,-4.2946,-4.3015,-4.3011,-4.3058,-4.3135,-4.3124,-4.3201,-4.3212,-4.3236,-4.3286,-4.326,-4.3307,-4.3299,-4.3347,-4.3345,-4.3422,-4.3433,-4.3438,-4.3437,-4.3441,-4.3441,-4.346,-4.3452,-4.3429,-4.3428,-4.3427,-4.3426,0,-4.3081,-4.3081,-4.3162,-4.3185,-4.3193,-4.3249,-4.3269,-4.3315,-4.3319,-4.3382,-4.3396,-4.3403,-4.3459,-4.3458,-4.3521,-4.352,-4.3616,-4.3604,-4.3606,-4.3604,-4.3668,-4.3663,-4.3872,-4.39,-4.3713,-4.3714,-4.3716,0,-4.317,-4.3222,-4.3251,-4.3283,-4.33,-4.335,-4.3381,-4.3372,-4.3405,-4.3444,-4.3485,-4.3538,-4.358,-4.367,-4.3682,-4.373,-4.3721,-4.3791,-4.3728,-4.3731,-4.3724,-4.3722,-4.3728,-4.3803,-4.3806,-4.3807,-4.3809,0,-4.3328,-4.3326,-4.337,-4.3416,-4.3453,-4.3488,-4.352,-4.3547,-4.3542,-4.3581,-4.3637,-4.367,-4.3734,-4.3788,-4.3835,-4.3852,-4.3831,-4.3828,-4.3846,-4.3852,-4.3851,-4.3855,-4.3641,-4.3824,-4.3822,-4.3821,-4.382,-4.382,-4.3444,-4.349,-4.3518,-4.3569,-4.3592,-4.3624,-4.3668,-4.3678,-4.3724,-4.3776,-4.3768,-4.3832,-4.3862,-4.3923,-4.3944,-4.3995,-4.397,-4.3995,-4.4002,-4.4009,-4.4017,-4.3842,-4.4003,-4.4002,-4.4002,-4.4002,-4.4001,0,-4.3603,-4.362,-4.3667,-4.3713,-4.3754,-4.3729,-4.3764,-4.38,-4.3856,-4.3885,-4.3927,-4.3993,-4.4045,-4.4061,-4.4112,-4.415,-4.4141,-4.4164,-4.4162,-4.4166,-4.4034,-4.4015,-4.417,-4.417,-4.417,-4.417,-4.4169,-4.4169,-4.3691,-4.3768,-4.3769,-4.3858,-4.3874,-4.3936,-4.3959,-4.3988,-4.4012,-4.4086,-4.4129,-4.4139,-4.4164,-4.4217,-4.4264,-4.4268,-4.4289,-4.4315,-4.4315,-4.4192,-4.4175,-4.4159,-4.4141,-4.432,-4.432,-4.4443,-4.4444,-4.4445]},{"header":{"parameterUnit":"m.s-1","parameterCategory":1,"la1":30.2991,"la2":30.254,"lo1":-89.0895,"lo2":-89.0444,"dy":0.0017,"dx":0.0017,"nx":28,"ny":28,"refTime":"2023-09-27T09:00:00:Z","depth":0,"parameterNumber":3,"parameterNumberName":"V-component_of_WINDS"},"data":[0,0,0,0,0,0,0,0,0,0,0,0,0,0,0,0,0,0,0,0,0,0,0,0,0,0,0,0,0,0,0,0,0,0,0,0,0,0,0,0,0,0,0,0,0,0,0,0,0,0,0,0,0,0,0,0,0,0,-2.4315,-2.4315,0,-2.439,-2.4391,-2.4392,-2.4426,-2.4426,-2.4426,-2.4426,-2.4501,-2.4503,-2.4505,0,0,0,0,0,0,0,0,0,0,0,0,0,-2.42,-2.4202,-2.4314,-2.4315,-2.4316,-2.439,-2.4391,-2.4392,-2.4426,-2.4426,-2.4426,-2.4426,-2.45,-2.4503,-2.4505,0,0,0,0,0,0,0,0,0,0,0,0,0,-2.426,-2.4203,-2.4314,-2.4343,-2.4346,-2.439,-2.4391,-2.4392,-2.4426,-2.4426,-2.4426,-2.4426,-2.45,-2.4503,-2.4506,-2.4526,0,0,-2.4515,-2.4516,0,0,0,0,0,0,0,0,-2.4257,-2.4264,-2.4337,-2.4341,-2.4344,-2.4399,-2.4378,-2.4437,-2.4427,-2.4396,-2.4426,-2.4426,-2.4467,-2.4473,-2.4487,-2.453,-2.4533,-2.4515,-2.4517,-2.4518,-2.4519,0,0,0,0,0,0,0,-2.4252,-2.4261,-2.4344,-2.4338,-2.4343,-2.4351,-2.436,-2.4389,-2.4431,-2.4398,-2.4401,-2.441,-2.4469,-2.4484,-2.4489,-2.4534,-2.4515,-2.4518,-2.452,-2.4521,-2.4602,-2.4602,0,0,0,0,0,0,-2.4244,-2.4257,-2.4342,-2.4347,-2.4299,-2.4354,-2.4363,-2.4381,-2.4431,-2.4438,-2.441,-2.4411,-2.4479,-2.4485,-2.4492,-2.4522,-2.4518,-2.4521,-2.4523,-2.4602,-2.4602,-2.4602,0,0,0,0,0,0,-2.4241,-2.4251,-2.4339,-2.4303,-2.4315,-2.4356,-2.4376,-2.4383,-2.4398,-2.4439,-2.4447,-2.4418,-2.4479,-2.4487,-2.4519,-2.4525,-2.4523,-2.4525,-2.4601,-2.4602,-2.4602,-2.4581,0,0,0,0,0,0,-2.4238,-2.425,-2.4258,-2.4303,-2.4316,-2.4364,-2.4376,-2.4384,-2.4404,-2.4406,-2.4449,-2.4455,-2.448,-2.4514,-2.4522,-2.4529,-2.4528,-2.4601,-2.4601,-2.4602,-2.4581,-2.4581,-2.458,0,0,0,0,0,-2.4234,-2.4247,-2.4258,-2.4268,-2.4327,-2.4364,-2.4372,-2.44,-2.4404,-2.4413,-2.444,-2.4454,-2.4523,-2.4517,-2.4526,-2.4534,-2.4601,-2.4601,-2.4602,-2.4582,-2.4581,-2.458,0,0,0,0,0,0,-2.42,-2.4254,-2.4266,-2.4295,-2.4325,-2.437,-2.4382,-2.4398,-2.4427,-2.4428,-2.4461,-2.447,-2.4499,-2.452,-2.4512,-2.4559,-2.4563,-2.4566,-2.4545,-2.4544,-2.4544,-2.4539,-2.453,0,0,0,0,0,-2.4196,-2.4223,-2.4268,-2.4289,-2.4304,-2.434,-2.4357,-2.4377,-2.4409,-2.4422,-2.4451,-2.4481,-2.451,-2.4528,-2.4556,-2.4584,-2.4596,-2.4595,-2.4595,-2.4594,-2.4596,-2.4616,-2.4617,-2.4605,-2.4605,-2.4605,0,0,-2.4188,-2.4221,-2.4235,-2.4283,-2.4309,-2.4336,-2.4351,-2.4377,-2.4398,-2.4425,-2.4458,-2.448,-2.4516,-2.4547,-2.4562,-2.4565,-2.4602,-2.4595,-2.4594,-2.4597,-2.4617,-2.4618,-2.4619,-2.4605,-2.4605,-2.4605,0,0,-2.4188,-2.4214,-2.4237,-2.4263,-2.4303,-2.4328,-2.4333,-2.4377,-2.4394,-2.4427,-2.4449,-2.4474,-2.4522,-2.4548,-2.4567,-2.4581,-2.4597,-2.4589,-2.4587,-2.4606,-2.4607,-2.4608,-2.4615,-2.4617,-2.4591,-2.4591,-2.4591,0,-2.4173,-2.4215,-2.4246,-2.4273,-2.4295,-2.4323,-2.4347,-2.437,-2.4416,-2.4431,-2.4434,-2.4498,-2.4524,-2.4563,-2.4566,-2.458,-2.4589,-2.4585,-2.4604,-2.4605,-2.4607,-2.4615,-2.4617,-2.459,-2.459,-2.459,-2.459,0,-2.4195,-2.4224,-2.4237,-2.4285,-2.4307,-2.4332,-2.4368,-2.4387,-2.4406,-2.443,-2.4465,-2.4498,-2.4536,-2.4546,-2.4562,-2.4588,-2.459,-2.4598,-2.4603,-2.4607,-2.4615,-2.4617,-2.4589,-2.4589,-2.4589,-2.459,0,0,-2.4174,-2.4241,-2.4246,-2.4269,-2.4316,-2.4339,-2.4367,-2.4405,-2.4422,-2.4454,-2.4479,-2.4521,-2.453,-2.4552,-2.4572,-2.4589,-2.4601,-2.4596,-2.4597,-2.4598,-2.4635,-2.463,-2.4632,-2.4612,-2.4612,-2.4613,-2.4633,0,-2.4182,-2.4234,-2.4264,-2.4303,-2.4332,-2.4361,-2.4385,-2.4417,-2.4442,-2.447,-2.4496,-2.4527,-2.4535,-2.455,-2.4567,-2.4596,-2.461,-2.4595,-2.4636,-2.4637,-2.4628,-2.4636,-2.463,-2.4647,-2.4636,-2.4636,-2.4637,0,-2.4198,-2.4232,-2.4275,-2.4323,-2.4336,-2.4357,-2.4397,-2.4423,-2.446,-2.4477,-2.4504,-2.4525,-2.4557,-2.4559,-2.4603,-2.4593,-2.4612,-2.4629,-2.463,-2.4636,-2.4638,-2.4644,-2.4653,-2.4656,-2.4641,-2.4641,-2.464,0,-2.4182,-2.4238,-2.4272,-2.429,-2.4346,-2.4361,-2.4385,-2.4423,-2.4446,-2.448,-2.4495,-2.4532,-2.4552,-2.458,-2.4612,-2.461,-2.4654,-2.4658,-2.467,-2.467,-2.4679,-2.4678,-2.4693,-2.4688,-2.4688,-2.4688,-2.4688,0,-2.4188,-2.4213,-2.4266,-2.4287,-2.4317,-2.4352,-2.4381,-2.4407,-2.4442,-2.4469,-2.4495,-2.452,-2.4559,-2.4589,-2.4613,-2.4648,-2.4656,-2.4672,-2.4678,-2.4671,-2.4669,-2.4684,-2.4685,-2.4689,-2.4688,-2.4688,-2.4688,0,-2.4175,-2.4211,-2.425,-2.4301,-2.4315,-2.4335,-2.4379,-2.4401,-2.4428,-2.4463,-2.4473,-2.4515,-2.4552,-2.4586,-2.4634,-2.4651,-2.4687,-2.4694,-2.4675,-2.4679,-2.469,-2.469,-2.4717,-2.4723,-2.4712,-2.4712,-2.4712,0,-2.4177,-2.4198,-2.4253,-2.4274,-2.4299,-2.4331,-2.4355,-2.4392,-2.4415,-2.4463,-2.4479,-2.4519,-2.4552,-2.461,-2.4645,-2.4683,-2.4693,-2.47,-2.4699,-2.4691,-2.4696,-2.4695,-2.4699,-2.47,-2.47,-2.4699,-2.4699,0,-2.4179,-2.4197,-2.4231,-2.4273,-2.4301,-2.4335,-2.4369,-2.4385,-2.4428,-2.4454,-2.4493,-2.4519,-2.4571,-2.461,-2.4653,-2.4678,-2.4697,-2.47,-2.4705,-2.4698,-2.4687,-2.4696,-2.4676,-2.4699,-2.4699,-2.4699,-2.4699,-2.4699,-2.4175,-2.4197,-2.424,-2.4278,-2.4309,-2.4342,-2.4366,-2.4398,-2.4432,-2.4478,-2.4497,-2.4538,-2.4578,-2.4638,-2.4663,-2.4696,-2.4699,-2.4706,-2.4708,-2.471,-2.471,-2.4681,-2.4703,-2.4703,-2.4703,-2.4703,-2.4703,0,-2.4181,-2.4211,-2.4246,-2.4295,-2.4326,-2.4342,-2.4383,-2.4407,-2.4443,-2.448,-2.4514,-2.456,-2.46,-2.4639,-2.4681,-2.47,-2.471,-2.471,-2.471,-2.4716,-2.4703,-2.4695,-2.4702,-2.4702,-2.4702,-2.4702,-2.4702,-2.4702,-2.4187,-2.4226,-2.4249,-2.4304,-2.4334,-2.4375,-2.4397,-2.4428,-2.4458,-2.451,-2.4544,-2.457,-2.4609,-2.4654,-2.4692,-2.4702,-2.4717,-2.4716,-2.4729,-2.4716,-2.4716,-2.4716,-2.4709,-2.4718,-2.4718,-2.474,-2.474,-2.474]}]]